KOLMKTIW

Guest
Details From KOLM - OLYMPIA
To KTIW - TACOMA NARROWS
Flight Number -
Tags generated
Created
Modified
Stats Distance 22 nm / 41 km
Max Altitude 0 ft / 0 m
Waypoints 3
Social Downloads 0
Likes 0
Share VATSIM

Download

Looking for another format? Having issues loading an existing format? Contact us
Advertisement - Login to hide

Notes

Basic altitude profile: - Ascent Rate: 2500ft/min - Ascent Speed: 250kts - Cruise Altitude: 35000ft - Cruise Speed: 420kts - Descent Rate: 1500ft/min - Descent Speed: 250kts Options: - Use NATs: no - Use PACOTS: no - Use low airways: yes - Use high airways: no

Route

KOLM OLM KTIW

ID Type Via Altitude Latitude Longitude Leg Dist Tot Dist Heading (true) Name
O KOLM APT - 0 ft / 0 m 46.96931˚ -122.90248˚ - 0 nm - OLYMPIA
OLM VOR - 0 ft / 0 m 46.97164˚ -122.90183˚ 0 nm 0 nm 11° / 11° OLYMPIA VORTAC
O KTIW APT - 0 ft / 0 m 47.26793˚ -122.57811˚ 22 nm 22 nm 37° / 37° TACOMA NARROWS

Altitude Profile

Advertisement - Login to hide

KOLM

Details ICAO KOLM (OLM)
Name OLYMPIA
Region United States
Timezone America/Los_Angeles (UTC-8.0)
Stats Elevation 209 ft / 64 m (AMSL)
Location 46.969312° -122.902479°
Runways 2
Magnetic Variation 15.673° E

METAR

KOLM 172254Z 18012G21KT 3SM -RA BR BKN008 OVC022 07/07 A3006 RMK AO2 RAB2155 SLP182 P0001 T00720072

Decode

TAF

KOLM 172349Z 1800/1824 18012G24KT 3SM -RA BR OVC008

Decode

Departure Runways

ID Width Length Bearing (true) Bearing (mag) Surface Threshold Offset Overrun Length
08 151 ft / 46 m 4,147 ft / 1,264 m 103.71° 88.04° Asphalt 0 ft / 0 m 0 ft / 0 m
17 151 ft / 46 m 5,503 ft / 1,677 m 191.27° 175.60° Asphalt 0 ft / 0 m 600 ft / 183 m
26 151 ft / 46 m 4,147 ft / 1,264 m 283.72° 268.05° Asphalt 0 ft / 0 m 0 ft / 0 m
35 151 ft / 46 m 5,503 ft / 1,677 m 11.27° 355.60° Asphalt 0 ft / 0 m 0 ft / 0 m

KTIW

Details ICAO KTIW (TIW)
Name TACOMA NARROWS
Region United States
Timezone America/Los_Angeles (UTC-8.0)
Stats Elevation 292 ft / 89 m (AMSL)
Location 47.267930° -122.578113°
Runways 1
Magnetic Variation 15.688° E

METAR

KTIW 172253Z 19017G24KT 10SM SCT013 BKN048 BKN060 08/07 A3003 RMK AO2 SLP172 T00830067

Decode

TAF

Not found

Destination Runways

ID Width Length Bearing (true) Bearing (mag) Surface Threshold Offset Overrun Length
17 150 ft / 46 m 5,004 ft / 1,525 m 186.99° 171.30° Asphalt 0 ft / 0 m 0 ft / 0 m
35 150 ft / 46 m 5,004 ft / 1,525 m 6.99° 351.30° Asphalt 0 ft / 0 m 0 ft / 0 m

Approach Navaids

Runway Type Ident Frequency Range Bearing (true) Bearing (mag) Slope Elevation
17 Localiser ITIW 109.10 MHz 18 nm / 33 km 186.99° 171.30° - 292 ft / 89 m (AMSL)
17 Glidescope ITIW 109.10 MHz 10 nm / 19 km 186.99° 171.30° 3.00° 292 ft / 89 m (AMSL)

Popular Alternatives